Regional Weather Roundup
Issued by NWS

Home | Current Version | Previous Version | Graphics & Text | Print | Product List | Glossary On
Versions: 1 2 3 4 5 6 7 8 9 10 11 12 13 14 15 16 17 18 19 20 21 22 23 24 25 26 27 28 29 30 31 32 33 34 35 36 37 38 39 40 41 42 43 44 45 46 47 48 49 50
000
ASUS43 KMKX 170421
RWRWI

WISCONSIN REGIONAL WEATHER ROUNDUP
NATIONAL WEATHER SERVICE MILWAUKEE/SULLIVAN WI
1100 PM CDT WED APR 16 2014

NOTE: "FAIR" INDICATES FEW OR NO CLOUDS BELOW 12,000 FEET WITH NO
SIGNIFICANT WEATHER AND/OR OBSTRUCTIONS TO VISIBILITY.

WIZ001-002-006>008-014>016-023>028-170500-
NORTHWEST WISCONSIN

CITY           SKY/WX    TMP DP  RH WIND       PRES   REMARKS
SUPERIOR ARPT  LGT SNOW  29  28  95 NE16G28   30.16S WCI  17
ASHLAND        LGT SNOW  28  27  96 NE20      30.14F VSB 1   WCI  15
HAYWARD        LGT SNOW  29  26  89 NE13      30.05S FOG     WCI  19
SIREN          LGT SNOW  28  27  95 NE12G20   30.03S WCI  18
RICE LAKE      CLOUDY    35  32  89 E12G18    29.99F FOG     WCI  27
LADYSMITH      CLOUDY    36  31  83 E13       30.03S WCI  27
EAU CLAIRE     LGT RAIN  39  34  82 E13       29.95F WCI  31
MENOMONIE      LGT RAIN  37  37  97 NE8       29.94F WCI  31
NEW RICHMOND   RAIN      34  34 100 NE10      29.95S WCI  26
OSCEOLA        LGT SNOW  32  32 100 N8        30.00S WCI  24
$$

WIZ003>005-009-010-017-018-170500-
NORTH CENTRAL WISCONSIN

CITY           SKY/WX    TMP DP  RH WIND       PRES   REMARKS
WOODRUFF       LGT SNOW  32  29  90 SE13G21   30.09F WCI  22
RHINELANDER    LGT SNOW  30  27  88 SE14      30.10F VSB 1   WCI  19
EAGLE RIVER    LGT SNOW  29  29  99 SE9       30.12F VSB 3/4 WCI  21
LAND O LAKES   LGT SNOW  30  28  94 SE9       30.14S VSB 1   WCI  21
PHILLIPS       CLOUDY    31  28  90 E9G16     30.04F WCI  23
TOMAHAWK       LGT SNOW  32  28  84 SE8G16    30.07S WCI  25
MEDFORD        CLOUDY    36  26  67 SE15G21   30.02F WCI  26
MERRILL        CLOUDY    36  26  68 CALM      30.07S
$$

WIZ029-030-035-036-043>047-170500-
CENTRAL WISCONSIN

CITY           SKY/WX    TMP DP  RH WIND       PRES   REMARKS
WAUSAU         CLOUDY    37  24  59 E20G26    30.06S WCI  27
MOSINEE        CLOUDY    36  27  69 SE15G21   30.07F WCI  26
MARSHFIELD     CLOUDY    38  28  67 E16       30.02F WCI  29
STEVENS POINT  CLOUDY    36  25  64 E15G23    30.08F WCI  26
WAUPACA        CLOUDY    43  25  49 E14       30.11S
WAUTOMA        CLOUDY    41  27  57 E10       30.09S
WISC RAPIDS    LGT RAIN  40  26  57 SE15G23   30.06S WCI  32
CAMP DOUGLAS   CLOUDY    46  31  55 SE17G25   29.98F
$$

WIZ011>013-019>022-031-037>040-048>050-170500-
NORTHEAST WISCONSIN

CITY           SKY/WX    TMP DP  RH WIND       PRES   REMARKS
ANTIGO         CLOUDY    31  25  79 E17G24    30.11F WCI  20
STURGEON BAY   CLOUDY    36  28  75 SE8       30.21F WCI  29
GREEN BAY      CLOUDY    37  27  67 E9        30.18F WCI  30
MANITOWOC      CLOUDY    39  29  67 SE12      30.20F WCI  32
APPLETON       CLOUDY    39  25  56 SE13G20   30.14F WCI  32
CLINTONVILLE   CLOUDY    37  27  65 E8        30.14S WCI  31
OSHKOSH        CLOUDY    41  25  53 SE12      30.12F
$$

WIZ032>034-041-042-053>061-170500-
SOUTHWEST WISCONSIN

CITY           SKY/WX    TMP DP  RH WIND       PRES   REMARKS
LA CROSSE      CLOUDY    51  28  41 SE16G26   29.90F
SPARTA         CLOUDY    49  27  43 SE16      29.95S
VIROQUA        CLOUDY    46  29  52 SE21G28   29.92F
BOSCOBEL       CLOUDY    50  28  42 S8G22     29.96S
PRAIRIE DU CHI CLOUDY    51  27  39 SE13G22   29.92F
PLATTEVILLE    CLOUDY    47  29  50 SE18G25   29.99S
$$

WIZ056-057-062-063-064-067-068-170500-
SOUTH CENTRAL WISCONSIN

CITY           SKY/WX    TMP DP  RH WIND       PRES   REMARKS
BARABOO/DELLS  CLOUDY    46  27  47 SE17      30.02F
LONE ROCK      CLOUDY    48  29  47 SE14G31   30.00F
WATERTOWN      PTCLDY    41  28  60 SE12      30.10S
MADISON        MOCLDY    46  28  49 SE16      30.07R
MIDDLETON      CLOUDY    48  26  43 SE13      30.05S
MONROE         CLOUDY    45  29  54 S17G26    30.04S
JANESVILLE     MOCLDY    45  27  49 SE15      30.09S
$$

WIZ051-052-058>065-066-070>072-170500-
SOUTHEAST WISCONSIN

CITY           SKY/WX    TMP DP  RH WIND       PRES   REMARKS
MILWAUKEE      CLOUDY    43  27  53 SE15      30.17R
WAUKESHA       CLOUDY    39  27  60 SE15      30.14F WCI  31
MILWAUKEE/TIMM CLOUDY    41  27  56 SE9       30.17F
RACINE         MOCLDY    41  29  62 SE18      30.18R
BURLINGTON     MOCLDY    40  29  63 SW9       30.13F WCI  35
KENOSHA        CLOUDY    42  28  57 SE14      30.16R
FOND DU LAC    CLOUDY    41  26  55 SE18      30.12F
SHEBOYGAN      CLOUDY    40  26  57 SE15G23   30.18R WCI  32
WEST BEND      CLOUDY    39  25  56 SE12G17   30.15F WCI  32
JUNEAU         MOCLDY    41  23  48 SE15      30.11S
$$

LSZ147-162-170500-
LAKE SUPERIOR

STATION/POSITION TIME  TEMP    WIND        PRES    WAVE
                       AIR SEA DIR/SP/G            HT/PER
                 (UTC) (F)     (DEG/KT/KT) (MB)    (FT/S)
DEVILS ISLAND    0400   29      70/ 30/ 35 1023.3F
PORT WING        0300   28      50/ 23/ 29 1021.3F
SAXON HARBOR     0300           50/ 13/ 15 1020.7F
$$

LMZ867-665-643>646-170500-
LAKE MICHIGAN

STATION/POSITION TIME  TEMP    WIND        PRES    WAVE
                       AIR SEA DIR/SP/G            HT/PER
                 (UTC) (F)     (DEG/KT/KT) (MB)    (FT/S)
NORTHPORT PIER   0300   33     100/ 16/ 21 1024.0R
SISTER BAY       0323   33     110/ 12/ 21   N/A
SHEBOYGAN LAKESH 0400   39     140/ 19/ 21 1022.8R
PORT WASHINGTON  0300   40     140/ 13/ 16 1022.4R
MILWAUKEE LAKESH 0400   40     150/ 13/ 15   N/A
KENOSHA   LAKESH 0400   40     160/ 15/ 18   N/A
$$

TC  - TEMPERATURE IN CELSIUS
VSB - VISIBILITY IN STATUTE MILES
WCI - WIND CHILL INDEX
HX  - HEAT INDEX




USA.gov is the U.S. government's official web portal to all federal, state and local government web resources and services.